User: anonymous   Login
Location: Unspecified
(0.0000°N, 0.0000°E)
Time: 02:14:27
(UTC+02:00)
Language:

SJ-6B - Orbit

View from above orbital plane
View from above orbital plane
View from above satellite
View from above satellite

Ground track
Ground track

The orbit data is extracted from the following two-line orbital elements,

1 28415U 04035C   15115.48494673  .00003202  00000-0  22728-3 0  9991
2 28415 097.7975 127.3708 0052600 255.8888 103.6488 15.04377961580669
Epoch (UTC): 25 April 2015 11:38:19
Eccentricity: 0.0052600
inclination: 97.7975°
perigee height: 517 km
apogee height: 590 km
right ascension of ascending node: 127.3708°
argument of perigee: 255.8888°
revolutions per day: 15.04377961
mean anomaly at epoch: 103.6488°
orbit number at epoch: 58066

The dashed part of the orbit path shows where the satellite is in the earth's shadow,  

DLR